sat.trackr.live / text

‹ back to catalog

STARLINK-30307

NORAD 57747 · 2023-131R

PAYLOAD ACTIVE UNKNOWN

§ Identity

Operator
Country
US
Launch date
2023-09-01
Launch site
AFETR
Launch vehicle
Mass (kg)
RCS (m²)

Purposes: comms

External: N2YO · Heavens-Above · Gunter

§ Orbital elements

Epoch: 2026-09-19T22:44:13.040160Z

Period
94.27 min
Inclination
43.0022°
Eccentricity
0.0001044
Mean motion
15.27579781 rev/d
Perigee alt
482.3 km
Apogee alt
483.8 km
Semi-major
6,861.2 km
B*
3.3788e-5
RAAN
155.5611°
Arg perigee
269.4154°
Mean anomaly
90.6578°
Rev number
16,962

§ Raw data

STARLINK-303071 57747U 23131R   26262.94737315  .00000668  00000+0  33788-4 0  99992 57747  43.0022 155.5611 0001044 269.4154  90.6578 15.27579781169628

JSON: /api/v1/satellites/57747 · /tle

For live sub-satellite position, see the globe view (requires WebGL).

§ Visibility from observer

Set your observer location to see the next 7 days of passes ≥ 10°. The values pass through the URL so the page stays shareable.

No JS? Fill the form by hand. The geolocation button needs JavaScript.